When you browse on this site, cookies collect data to enhance your experience and personalize the content and advertising you see.
Visit our Privacy Policy to learn more. By continuing to use the site, you agree to this use of cookies and data.
  • In Hungary
  • List of Countries
  • For 7 days
  • Water Temperature
  • Satellite Maps
  • Weather Map
  • News
  • Weather Widgets
  • user-avatar
    Login

    Hourly Weather Progale

    Today, 22 May, Wednesday

    Time Temperature Precipitation Wind Pressure Humidity
    00:00 +13°C° 0 mm 2 mps 739 mmHg 94%
    01:00 +13°C° 0 mm 2 mps 739 mmHg 95%
    02:00 +11°C° 0 mm 3 mps 739 mmHg 96%
    03:00 +11°C° 0 mm 3 mps 739 mmHg 96%
    04:00 +11°C° 0 mm 3 mps 739 mmHg 95%
    05:00 +11°C° 0 mm 3 mps 740 mmHg 95%
    06:00 +12°C° 0 mm 3 mps 740 mmHg 89%
    07:00 +14°C° 0 mm 4 mps 740 mmHg 82%
    08:00 +17°C° 0 mm 4 mps 740 mmHg 74%
    09:00 +18°C° 0.1 mm 4 mps 740 mmHg 72%
    10:00 +19°C° 0.1 mm 5 mps 740 mmHg 69%
    11:00 +20°C° 0.1 mm 5 mps 740 mmHg 66%
    12:00 +20°C° 0.5 mm 5 mps 740 mmHg 68%
    13:00 +20°C° 0.5 mm 4 mps 740 mmHg 69%
    14:00 +20°C° 0.5 mm 4 mps 740 mmHg 71%
    15:00 +20°C° 0.5 mm 4 mps 740 mmHg 72%
    16:00 +20°C° 0.5 mm 4 mps 740 mmHg 74%
    17:00 +20°C° 0.5 mm 4 mps 740 mmHg 75%
    18:00 +19°C° 0.2 mm 3 mps 740 mmHg 80%
    19:00 +18°C° 0.2 mm 2 mps 740 mmHg 85%
    20:00 +17°C° 0.2 mm 2 mps 740 mmHg 91%
    21:00 +16°C° 0 mm 2 mps 740 mmHg 92%
    22:00 +15°C° 0 mm 2 mps 740 mmHg 93%
    23:00 +14°C° 0 mm 1 mps 740 mmHg 94%

    Tomorrow, 23 May, Thursday

    Time Temperature Precipitation Wind Pressure Humidity
    00:00 +14°C° 0 mm 1 mps 740 mmHg 94%
    01:00 +13°C° 0 mm 1 mps 741 mmHg 94%
    02:00 +13°C° 0 mm 1 mps 741 mmHg 94%
    03:00 +13°C° 0 mm 1 mps 741 mmHg 94%
    04:00 +13°C° 0 mm 1 mps 741 mmHg 94%
    05:00 +13°C° 0 mm 1 mps 741 mmHg 94%
    06:00 +14°C° 0 mm 1 mps 741 mmHg 89%
    07:00 +15°C° 0 mm 0 mps 742 mmHg 84%
    08:00 +17°C° 0 mm 0 mps 742 mmHg 78%
    09:00 +19°C° 0 mm 0 mps 742 mmHg 71%
    10:00 +21°C° 0 mm 0 mps 742 mmHg 64%
    11:00 +22°C° 0 mm 0 mps 742 mmHg 57%
    12:00 +23°C° 0 mm 0 mps 742 mmHg 54%
    13:00 +26°C° 0 mm 1 mps 742 mmHg 51%
    14:00 +26°C° 0 mm 1 mps 742 mmHg 49%
    15:00 +25°C° 0.3 mm 2 mps 742 mmHg 54%
    16:00 +25°C° 0.3 mm 3 mps 742 mmHg 59%
    17:00 +24°C° 0.3 mm 3 mps 741 mmHg 64%
    18:00 +21°C° 0.6 mm 3 mps 742 mmHg 73%
    19:00 +20°C° 0.6 mm 3 mps 742 mmHg 81%
    20:00 +18°C° 0.6 mm 2 mps 742 mmHg 90%
    21:00 +17°C° 0.2 mm 3 mps 742 mmHg 92%
    22:00 +16°C° 0.2 mm 3 mps 742 mmHg 95%
    23:00 +16°C° 0.2 mm 3 mps 743 mmHg 97%

    Day after tomorrow, 24 May, Friday

    Time Temperature Precipitation Wind Pressure Humidity
    00:00 +14°C° 0 mm 3 mps 743 mmHg 97%
    01:00 +13°C° 0 mm 4 mps 743 mmHg 96%
    02:00 +13°C° 0 mm 4 mps 743 mmHg 96%
    03:00 +12°C° 0 mm 4 mps 743 mmHg 96%
    04:00 +12°C° 0 mm 4 mps 743 mmHg 95%
    05:00 +12°C° 0 mm 3 mps 743 mmHg 95%
    06:00 +12°C° 0 mm 3 mps 743 mmHg 93%
    07:00 +12°C° 0 mm 3 mps 743 mmHg 92%
    08:00 +12°C° 0 mm 3 mps 743 mmHg 90%
    09:00 +14°C° 0 mm 3 mps 743 mmHg 86%
    10:00 +16°C° 0 mm 3 mps 743 mmHg 82%
    11:00 +18°C° 0 mm 3 mps 743 mmHg 78%
    12:00 +18°C° 0 mm 3 mps 743 mmHg 77%
    13:00 +19°C° 0 mm 3 mps 743 mmHg 75%
    14:00 +20°C° 0 mm 4 mps 743 mmHg 74%
    15:00 +20°C° 0.4 mm 4 mps 742 mmHg 74%
    16:00 +20°C° 0.4 mm 4 mps 742 mmHg 75%
    17:00 +20°C° 0.4 mm 4 mps 742 mmHg 76%
    18:00 +19°C° 0.3 mm 4 mps 742 mmHg 79%
    19:00 +18°C° 0.3 mm 4 mps 742 mmHg 82%
    20:00 +17°C° 0.3 mm 4 mps 742 mmHg 85%
    21:00 +14°C° 0 mm 3 mps 742 mmHg 86%
    22:00 +13°C° 0 mm 3 mps 742 mmHg 86%
    23:00 +12°C° 0 mm 3 mps 742 mmHg 87%

    25 May, Saturday

    Time Temperature Precipitation Wind Pressure Humidity
    00:00 +11°C° 0 mm 3 mps 742 mmHg 87%
    01:00 +10°C° 0 mm 3 mps 742 mmHg 87%
    02:00 +9°C° 0 mm 2 mps 742 mmHg 87%
    03:00 +9°C° 0 mm 2 mps 742 mmHg 86%
    04:00 +9°C° 0 mm 2 mps 742 mmHg 86%
    05:00 +8°C° 0 mm 2 mps 742 mmHg 85%
    06:00 +12°C° 0 mm 2 mps 742 mmHg 79%
    07:00 +14°C° 0 mm 2 mps 742 mmHg 73%
    08:00 +16°C° 0 mm 2 mps 742 mmHg 67%
    09:00 +17°C° 0 mm 2 mps 742 mmHg 65%
    10:00 +19°C° 0 mm 3 mps 742 mmHg 63%
    11:00 +20°C° 0 mm 4 mps 742 mmHg 61%
    12:00 +21°C° 0.2 mm 4 mps 742 mmHg 60%
    13:00 +21°C° 0.2 mm 5 mps 742 mmHg 58%
    14:00 +21°C° 0.2 mm 5 mps 741 mmHg 57%
    15:00 +21°C° 0.2 mm 5 mps 741 mmHg 59%
    16:00 +21°C° 0.2 mm 5 mps 741 mmHg 61%
    17:00 +20°C° 0.2 mm 4 mps 741 mmHg 63%
    18:00 +19°C° 0 mm 4 mps 741 mmHg 67%
    19:00 +18°C° 0 mm 3 mps 741 mmHg 72%
    20:00 +16°C° 0 mm 3 mps 741 mmHg 77%
    21:00 +15°C° 0 mm 2 mps 741 mmHg 82%
    22:00 +14°C° 0 mm 2 mps 742 mmHg 86%
    23:00 +12°C° 0 mm 1 mps 742 mmHg 91%

    26 May, Sunday

    Time Temperature Precipitation Wind Pressure Humidity
    00:00 +12°C° 0 mm 1 mps 742 mmHg 91%
    01:00 +11°C° 0 mm 1 mps 742 mmHg 92%
    02:00 +10°C° 0 mm 0 mps 742 mmHg 92%
    03:00 +11°C° 0 mm 1 mps 742 mmHg 92%
    04:00 +12°C° 0 mm 2 mps 742 mmHg 91%
    05:00 +11°C° 0 mm 3 mps 742 mmHg 90%
    06:00 +12°C° 0 mm 4 mps 742 mmHg 85%
    07:00 +12°C° 0 mm 4 mps 742 mmHg 79%
    08:00 +13°C° 0 mm 5 mps 742 mmHg 74%
    09:00 +13°C° 0 mm 5 mps 742 mmHg 72%
    10:00 +13°C° 0 mm 5 mps 742 mmHg 71%
    11:00 +13°C° 0 mm 5 mps 741 mmHg 69%
    12:00 +14°C° 0 mm 5 mps 741 mmHg 69%
    13:00 +14°C° 0 mm 6 mps 741 mmHg 68%
    14:00 +14°C° 0 mm 6 mps 741 mmHg 67%
    15:00 +14°C° 0.1 mm 6 mps 741 mmHg 68%
    16:00 +13°C° 0.1 mm 5 mps 740 mmHg 69%
    17:00 +13°C° 0.1 mm 5 mps 740 mmHg 70%
    18:00 +12°C° 0.1 mm 5 mps 740 mmHg 73%
    19:00 +11°C° 0.1 mm 4 mps 740 mmHg 77%
    20:00 +11°C° 0.1 mm 4 mps 740 mmHg 80%
    21:00 +10°C° 0 mm 4 mps 741 mmHg 82%
    22:00 +8°C° 0 mm 4 mps 741 mmHg 84%
    23:00 +7°C° 0 mm 4 mps 741 mmHg 86%

    27 May, Monday

    Time Temperature Precipitation Wind Pressure Humidity
    00:00 +6°C° 0 mm 4 mps 741 mmHg 85%
    01:00 +6°C° 0 mm 4 mps 741 mmHg 85%
    02:00 +5°C° 0 mm 5 mps 742 mmHg 84%
    03:00 +5°C° 0 mm 5 mps 742 mmHg 84%
    04:00 +5°C° 0 mm 5 mps 742 mmHg 84%
    05:00 +5°C° 0 mm 5 mps 742 mmHg 84%
    06:00 +6°C° 0 mm 5 mps 742 mmHg 79%
    07:00 +8°C° 0 mm 6 mps 743 mmHg 75%
    08:00 +9°C° 0 mm 6 mps 743 mmHg 70%
    09:00 +10°C° 0 mm 6 mps 743 mmHg 67%
    10:00 +13°C° 0 mm 5 mps 743 mmHg 65%
    11:00 +14°C° 0 mm 5 mps 744 mmHg 62%
    12:00 +15°C° 0 mm 5 mps 744 mmHg 60%
    13:00 +15°C° 0 mm 5 mps 744 mmHg 58%
    14:00 +17°C° 0 mm 4 mps 744 mmHg 57%
    15:00 +18°C° 0 mm 4 mps 744 mmHg 56%
    16:00 +18°C° 0 mm 3 mps 743 mmHg 56%
    17:00 +18°C° 0 mm 3 mps 743 mmHg 56%
    18:00 +17°C° 0 mm 2 mps 743 mmHg 61%
    19:00 +16°C° 0 mm 2 mps 743 mmHg 66%
    20:00 +14°C° 0 mm 1 mps 742 mmHg 72%
    21:00 +14°C° 0 mm 2 mps 742 mmHg 73%
    22:00 +13°C° 0 mm 2 mps 742 mmHg 75%
    23:00 +12°C° 0 mm 2 mps 742 mmHg 76%
    Show more